Location: Newark
(7.0858°N, 171.3717°E)
Time: 07:03:21
(UTC+00:00)

Courier 1B - Pass Details

Date: 29 November 2020
Orbit: 962 x 1209 km, 28.3° (Epoch: 20 January)

Event Time Altitude Azimuth Distance (km) Brightness Sun altitude
Rises 19:29:57 0° 274° (W) 4,096 10.2 12.7°
Reaches altitude 10° 19:33:25 10° 262° (W) 3,140 9.7 13.5°
Maximum altitude 19:39:31 25° 210° (SSW) 2,230 9.5 14.9°
Drops below altitude 10° 19:45:34 10° 159° (SSE) 3,100 11.0 16.2°
Sets 19:48:59 0° 145° (SE) 4,034 11.8 17.0°
